www.pogodaiklimat.ru

Погода и климат >> Архив погоды >> Индия >> Kanyakumari


ПОГОДА в Kanyakumari

  • Прогноз погоды в Kanyakumari
  • Монитор погоды в Kanyakumari
  • Климат города

АРХИВ ПОГОДЫ в Kanyakumari

Время (UTC), дата Ветер
(напр.,м/с)
 
Видим.   Явления Облачность Т
(С)
Тd
(С)
f
(%)
Тe
(С)
Тes
(С)
Комфортность P
(гПа)
Po
(гПа)
Тmin
(С)
Tmax
(С)
R
(мм)
R24
(мм)
S
(см)
03 18.06 З 4 10 км 8/3 600 м
[Sc diur, vesp Ac trans Ci sp]
+29.0 +26.8 88 +45 +47 опасность
перегрева
1010.7 1006.6 +24.7 +30.6
06 18.06 З 4 10 км 5/1 600 м
[Cu med, cong Ac trans Cc]
+29.4 +26.9 86 +46 +55 опасность
перегрева
1010.6 1006.5
09 18.06 З 4 10 км 8/3 600 м
[Cb calv Ac As Ci sp]
+29.4 +26.9 86 +46 +50 опасность
перегрева
1009.1 1005.0
12 18.06 З 4 10 км {дождь} 8/3 600 м
[Cb calv Ac trans Ci sp]
+27.5 +25.3 88 +40 +41 очень
душно
1008.6 1004.5 +30.5 0.9
15 18.06 З 4 4000 м {дождь} 9/4 600 м
[Sc diur, vesp Ac As]
+26.8 +25.4 92 +39 +39 очень
душно
1010.2 1006.1 1
18 18.06 З 3 2000 м слабая морось {дождь} 9/4 300 м
[Cu Sc Ac As]
+26.6 +25.5 94 +39 +39 очень
душно
1010.4 1006.3 1
21 18.06 З 5 4000 м {морось} 5/3 600 м
[Cu Sc Ac trans]
+26.4 +25.3 94 +38 +38 очень
душно
1008.4 1004.3 2
00 19.06 З 5 4000 м {морось} 5/3 600 м
[Sc diur, vesp Ac trans]
+26.2 +25.3 95 +38 +38 очень
душно
1008.3 1004.2 2
03 19.06 З 6 10 км 5/1 600 м
[Cu hum Ci sp]
+27.6 +25.9 90 +41 +43 опасность
перегрева
1009.4 1005.3 +24.7 +30.5 2
06 19.06 З 6 10 км 3/1 600 м
[Cu hum Ci fib]
+28.8 +26.6 88 +45 +52 опасность
перегрева
1008.9 1004.8
09 19.06 З 4 10 км 5/4 600 м
[Cu Sc Ac trans]
+28.6 +26.4 88 +44 +49 опасность
перегрева
1007.6 1003.5
12 19.06 З 5 10 км 8/4 600 м
[Cu Sc Ci sp]
+27.4 +25.7 90 +40 +41 очень
душно
1008.2 1004.1 +29.8
15 19.06 З 3 4000 м 8/1 600 м
[Sc Ac trans]
+26.6 +24.9 90 +38 +38 очень
душно
1009.3 1005.2
18 19.06 З 4 4000 м 1/1 600 м
[Sc]
+26.2 +24.8 92 +37 +37 очень
душно
1009.9 1005.8
21 19.06 З 4 4000 м 5/1 600 м
[Sc Ac trans]
+25.8 +24.1 90 +36 +36 очень
душно
1008.2 1004.1
00 20.06 штиль 0 4000 м мгла {дождь, морось} 10/5 300 м
[Frnb Ac As]
+24.8 +24.2 96 +34 +34 очень
душно
1009.3 1005.1 0.8
03 20.06 З 5 4000 м {дождь} 9/4 300 м
[Frnb Ac As]
+26.6 +24.9 90 +38 +39 очень
душно
1009.8 1005.7 +23.0 +29.8 1
06 20.06 З 5 10 км {дождь} 8/4 600 м
[Cu Sc Ac trans]
+27.6 +25.0 86 +40 +43 очень
душно
1009.6 1005.5
09 20.06 З 3 10 км 5/4 600 м
[Sc Ac trans]
+27.6 +25.0 86 +40 +46 очень
душно
1008.2 1004.1
12 20.06 З 6 10 км {морось} 8/3 600 м
[Cu Sc Ac trans Cs]
+27.0 +25.0 89 +39 +39 очень
душно
1007.8 1003.7 +29.3 0.3
15 20.06 З 7 4000 м 9/3 600 м
[Cu Sc Ac As Ci sp]
+26.6 +25.2 92 +38 +38 очень
душно
1009.1 1005.0 0.3
18 20.06 З 4 4000 м 9/3 600 м
[Cu Sc Ac As Ci sp]
+26.0 +24.3 90 +36 +36 очень
душно
1009.2 1005.1 0.3
21 20.06 З 3 4000 м 9/3 600 м
[Cu Sc Ac As]
+26.0 +24.3 90 +36 +36 очень
душно
1007.5 1003.4 0.3
00 21.06 З 3 4000 м слабая морось 9/4 600 м
[Cu Sc Ac As]
+25.6 +24.1 91 +35 +35 очень
душно
1008.1 1004.0 0.3
03 21.06 З 5 10 км {морось} 8/3 600 м
[Cu Sc Ac trans Ci sp]
+28.0 +25.2 85 +41 +42 опасность
перегрева
1009.0 1004.9 +23.8 +29.3 0.3
06 21.06 З 5 4000 м {морось} 8/3 600 м
[Cb calv Ac trans Cs]
+28.8 +24.8 79 +41 +46 опасность
перегрева
1008.9 1004.8
09 21.06 З 6 10 км 9/3 600 м
[Cb calv Ac trans Ci sp]
+29.0 +24.7 78 +41 +44 опасность
перегрева
1007.0 1002.9
12 21.06 З 5 10 км 9/3 600 м
[Sc diur, vesp Ac trans Ci sp]
+28.1 +24.9 83 +40 +41 очень
душно
1006.3 1002.2 +29.5
15 21.06 З 5 2000 м слабый дождь 8/3 300 м
[Cb calv Ac As Ci sp]
+27.1 +25.5 91 +40 +40 очень
душно
1007.8 1003.7 0.3
18 21.06 З 5 4000 м {дождь} 5/3 600 м
[Sc diur, vesp Ac trans Ci sp]
+26.2 +23.5 85 +36 +36 очень
душно
1008.2 1004.1 0.4
21 21.06 З 6 4000 м 8/4 600 м
[Sc diur, vesp Ac As]
+26.2 +23.6 86 +36 +36 очень
душно
1007.4 1003.3 0.4
00 22.06 З 4 4000 м 8/3 600 м
[Sc diur, vesp Ac trans Ci sp]
+25.8 +23.8 89 +35 +35 очень
душно
1007.5 1003.4 0.4
03 22.06 З 5 10 км 8/1 600 м
[Cu hum Ac lent Ci sp]
+26.8 +23.9 84 +37 +39 очень
душно
1008.7 1004.6 +24.0 +29.5 0.4
06 22.06 З 5 10 км в посл. час морось 9/3 600 м
[Sc diur, vesp Ac trans Ci sp]
+28.8 +25.1 80 +42 +46 опасность
перегрева
1009.0 1004.9 0.0
09 22.06 З 5 10 км 9/4 600 м
[Sc diur, vesp Ac trans Ci sp]
+28.8 +26.3 86 +44 +47 опасность
перегрева
1007.3 1003.2
12 22.06 З 6 10 км 9/3 600 м
[Sc diur, vesp Ac trans Ci sp]
+28.2 +24.8 82 +40 +41 очень
душно
1006.4 1002.3 +30.4
15 22.06 З 5 4000 м 9/3 600 м
[Sc diur, vesp Ac trans Ci sp]
+27.4 +24.8 86 +39 +39 очень
душно
1007.4 1003.3
18 22.06 СЗ 5 4000 м 6/3 600 м
[Sc diur, vesp Ac trans Ci sp]
+26.6 +24.3 87 +37 +37 очень
душно
1007.6 1003.5
21 22.06 З 4 4000 м 6/3 600 м
[Sc diur, vesp Ac trans]
+26.2 +24.2 89 +36 +36 очень
душно
1006.5 1002.4
00 23.06 З 5 4000 м 8/3 600 м
[Sc diur, vesp Ac trans Ci sp]
+26.4 +24.1 87 +37 +37 очень
душно
1006.8 1002.7
03 23.06 З 4 10 км 8/3 600 м
[Sc diur, vesp Ac trans Ci sp]
+27.2 +25.2 89 +39 +41 очень
душно
1008.8 1004.7 +24.0 +30.4
06 23.06 З 5 10 км 8/3 600 м
[Sc diur, vesp Ac trans Ci sp]
+29.4 +25.7 81 +44 +49 опасность
перегрева
1008.3 1004.2
09 23.06 З 4 10 км 6/3 600 м
[Sc diur, vesp Ac trans Ci sp]
+29.2 +25.5 80 +43 +48 опасность
перегрева
1006.2 1002.1
12 23.06 З 5 10 км 9/3 600 м
[Sc diur, vesp Ac trans Ci sp]
+29.0 +25.0 79 +42 +42 опасность
перегрева
1005.0 1001.9 +30.4
15 23.06 З 4 4000 м 8/3 600 м
[Sc diur, vesp Ac trans Ci sp]
+26.8 +24.2 86 +37 +37 очень
душно
1007.8 1003.7
18 23.06 З 5 4000 м 6/3 600 м
[Sc Ac trans Ci sp]
+26.6 +24.6 89 +38 +38 очень
душно
1008.6 1004.5
21 23.06 З 5 4000 м 8/3 600 м
[Sc Ac trans Ci sp]
+26.4 +24.4 89 +37 +37 очень
душно
1007.4 1003.3
00 24.06 З 4 4000 м 6/3 600 м
[Sc Ac trans Ci sp]
+26.8 +24.2 86 +37 +37 очень
душно
1007.7 1003.6
03 24.06 З 3 10 км 5/3 600 м
[Sc Ac trans Ci fib]
+28.0 +25.2 85 +41 +44 опасность
перегрева
1009.0 1004.9
06 24.06 З 5 10 км 5/3 600 м
[Sc Ac trans Ci fib]
+28.6 +26.1 86 +43 +49 опасность
перегрева
1009.0 1004.9
09 24.06 З 4 10 км 8/4 600 м
[Cu Sc Ac trans]
+28.2 +25.4 85 +41 +45 опасность
перегрева
1007.4 1003.3
12 24.06 З 4 10 км 8/4 600 м
[Cu Sc Ac trans]
+26.8 +25.1 90 +39 +39 очень
душно
1007.2 1003.1 +30.0
15 24.06 З 4 4000 м 8/1 600 м
[Sc Ac trans]
+25.6 +24.1 91 +35 +35 очень
душно
1009.5 1005.4
18 24.06 З 2 4000 м 4/1 600 м
[Sc Ac trans]
+25.6 +24.4 93 +36 +36 очень
душно
1009.7 1005.6

 

Местоположение метеостанции Kanyakumari (Tamil Nadu, Индия): широта 8.08 долгота 77.50 высота над уровнем моря 37 м.

В архиве по умолчанию представлена погода в Kanyakumari за последнюю неделю. Архивные данные за месяц целиком и за предыдущие месяцы, начиная с января 2011 года, Вы можете получить, выбрав интересующий диапазон дат из раскрывающегося списка и нажав кнопку "Ввод!".


*Определитесь, кто Вы:
робот инопланетянин человек

Внимание! Время в таблицах - всемирное. Для получения местного времени необходимо прибавить поправку, которая в Kanyakumari равна 5.5 ч.

Смотрите также архив погоды в соседних городах и на ближайших метеорологических станциях:

Погода в Thiruvananthapuram Air (Kerala, Индия) (74 км)
Погода в Thiruvananthapuram (Kerala, Индия) (75 км)
Погода в Palayankottai (Tamil Nadu, Индия) (77 км)
Погода в Tuticorin New Port (Tamil Nadu, Индия) (106 км)
Погода в Punalur (Kerala, Индия) (121 км)
Погода в Kovilangulam (Tamil Nadu, Индия) (175 км)
Погода в Kottayam (Kerala, Индия) (189 км)
Погода в Alapuzha (Kerala, Индия) (202 км)
Погода в Madurai Airport (Tamil Nadu, Индия) (205 км)
Погода в Madurai (Tamil Nadu, Индия) (216 км)

Пояснения к столбцам:

Ветер - указаны скорость ветра в м/с - средняя за 10 мин, порывы в срок и между сроками (в фигурных скобках) и направление, откуда дует ветер: С - северный, СВ - северо-восточный, В - восточный, ЮВ - юго-восточный, Ю - южный, ЮЗ - юго-западный, З - западный, СЗ - северо-западный.
Видимость - горизонтальная дальность видимости в метрах или километрах. При видимости от 1 до 10 км при отсутствии осадков обычно наблюдается дымка, при ухудшении видимости до 1 км и менее - туман. В сухую погоду видимость может ухудшаться дымом, пылью или мглою.
Явления - указаны атмосферные явления, наблюдавшиеся в срок или в последний час перед сроком; фигурными скобками обозначены явления, наблюдавшиеся между сроками (за 1-3 часа до срока); квадратными скобками обозначены град или гололедные отложения с указанием их диаметра в мм.
Облачность - указаны через наклонную черту общая и нижняя облачность в баллах и высота нижней границы облаков в метрах; квадратными скобками обозначены формы облаков: Ci - перистые, Cs - перисто-слоистые, Cc - перисто-кучевые, Ac - высококучевые, As - высокослоистые, Sc - слоисто-кучевые, Ns - слоисто-дождевые, Cu - кучевые, Cb - кучево-дождевые. Подробнее классификацию облаков см. в Атласе облаков (PDF).
T - Температура воздуха - температура, измеренная на высоте 2 м над землей.
Td - Температура точки росы - температура, при понижении до которой содержащийся в воздухе водяной пар достигнет насыщения.
f - Относительная влажность воздуха - влажноcть воздуха, измеренная на высоте 2 м над землей.
Te - Эффективная температура - температура, которую ощущает одетый по сезону человек в тени. Характеристика душности погоды. При расчете учитывается влияние влажности воздуха и скорости ветра на теплоощущения человека.
Tes - Эффективная температура на солнце - температура, которую ощущает человек, с поправкой на солнечный нагрев. Характеристика знойности погоды. Зависит от высоты солнца над горизонтом, облачности и скорости ветра. Ночью, в пасмурную погоду, а также при ветре 12 м/с и более поправка равна нулю.
P - Атмосферное давление - приведенное к уровню моря атмосферное давление.
Po - Атмосферное давление - измеренное на уровне метеостанции атмосферное давление.
Tmin - Минимальная температура - минимум температуры воздуха на высоте 2 м над землей.
Tmax - Максимальная температура - максимум температуры воздуха на высоте 2 м над землей.
R - Количество осадков - Количество выпавших осадков за период времени, мм. При наведении курсора мыши на число - период времени, за который выпало указанное количество осадков.
R24 - Количество осадков - Количество выпавших осадков за 24 часа, мм.
S - Снежный покров - Высота снежного покрова, см. При наведении курсора мыши на число - состояние снежного покрова и степень покрытия местности в баллах.